San Jose, Costa Rica

12:02 PM CST on September 22, 2017 (GMT -0600)
Juan Santamaria International

Weather History for MROC - June, 2014

Change the Weather History Date:

Wednesday, June 11, 2014

  Actual Average Record
Temperature  
Mean Temperature 76 °F -  
Max Temperature 84 °F 80 °F 86 °F (2001)
Min Temperature 68 °F 65 °F 62 °F (2013)
Cooling Degree Days 11    
Growing Degree Days 26 (Base 50)    
Moisture  
Dew Point 66 °F    
Average Humidity 76    
Maximum Humidity 94    
Minimum Humidity 52    
Precipitation  
Precipitation 0.00 in 0.32 in - ()
Sea Level Pressure  
Sea Level Pressure 29.94 in    
Wind  
Wind Speed 6 mph ()    
Max Wind Speed 46 mph    
Max Gust Speed -    
Visibility 7.3 miles    
Events Fog    
Averages and records for this station are not official NWS values.
T = Trace of Precipitation, MM = Missing Value Source: Averaged Metar Reports

Daily Weather History Graph

Daily Weather History Graph

Search for Another Location

Airport or City:

Trip Planner

Search our weather history database for the weather conditions in past years. The results will help you decide how hot, cold, wet, or windy it might be!

Date:

Astronomy

Jun. 11, 2014 Rise Set
Actual Time 5:15 AM CST 5:57 PM CST
Civil Twilight 4:52 AM CST 6:20 PM CST
Nautical Twilight 4:25 AM CST 6:47 PM CST
Astronomical Twilight 3:58 AM CST 7:15 PM CST
Moon 4:41 PM CST (6/11) 3:45 AM CST (6/11)
Length of Visible Light 13h 28m
Length of Day
12h 42m
Waxing Gibbous, 97% of the Moon is Illuminated
Jun 11
Waxing Gibbous
Jun 12
Full
Jun 19
Last Quarter
Jun 27
New
Jul 5
First Quarter

Hourly Weather History & Observations

Time (CST) Temp. Dew Point Humidity Pressure Visibility Wind Dir Wind Speed Gust Speed Precip Events Conditions
12:00 AM 70 °F 66 °F 85% 29.84 in 12 mi Calm Calm - -   Scattered Clouds
12:00 AM 69.8 °F 68.0 °F 94% 30.00 in 6.2 mi Calm Calm - N/A   Scattered Clouds
2:00 AM 69.8 °F 64.4 °F 83% 29.97 in 6.2 mi ENE 6.9 mph - N/A   Partly Cloudy
3:00 AM 69 °F 64 °F 77% 29.83 in 12 mi NNE 6.9 mph - -   Scattered Clouds
3:00 AM 69.8 °F 64.4 °F 83% 29.97 in 6.2 mi NNE 6.9 mph - N/A   Partly Cloudy
4:00 AM 68.0 °F 62.6 °F 83% 29.99 in - North 3.5 mph - N/A   Clear
5:00 AM 68.0 °F 62.6 °F 83% 30.01 in - NNE 4.6 mph - N/A   Clear
6:00 AM 70 °F 64 °F 74% 29.88 in 12 mi NE 3.5 mph - -   Clear
6:00 AM 69.8 °F 64.4 °F 83% 30.01 in - NE 3.5 mph - N/A   Clear
7:00 AM 73.4 °F 64.4 °F 73% 30.01 in - ENE 5.8 mph - N/A   Clear
8:00 AM 75.2 °F 64.4 °F 69% 30.02 in - East 10.4 mph - N/A   Clear
9:00 AM 78 °F 64 °F 52% 29.83 in 12 mi ESE 13.8 mph - -   Overcast
9:00 AM 78.8 °F 64.4 °F 61% 29.98 in - ESE 13.8 mph - N/A   Clear
10:00 AM 78.8 °F 64.4 °F 61% 29.99 in - ESE 12.7 mph - N/A   Clear
11:00 AM 77.0 °F 68.0 °F 74% 29.99 in 6.2 mi SW 13.8 mph - N/A   Mostly Cloudy
12:00 PM 84 °F 69 °F 52% 29.85 in 5 mi SW 10.4 mph - -   Mist
3:00 PM 80 °F 68 °F 60% 29.77 in 12 mi SSE 2.3 mph - -   Partly Cloudy
3:00 PM 78.8 °F 68.0 °F 69% 29.92 in 6.2 mi SSE 2.3 mph - N/A   Mostly Cloudy
4:00 PM 78.8 °F 68.0 °F 69% 29.92 in 6.2 mi SW 5.8 mph - N/A   Mostly Cloudy
5:00 PM 77.0 °F 69.8 °F 78% 29.93 in 6.2 mi WSW 6.9 mph - N/A   Mostly Cloudy
6:00 PM 74 °F 70 °F 83% 29.82 in 9 mi West 5.8 mph - -   Overcast
6:00 PM 73.4 °F 69.8 °F 88% 29.95 in 6.2 mi West 5.8 mph - N/A Fog Patches of Fog
7:00 PM - - N/A% 29.98 in 5.0 mi West 4.6 mph - N/A   Mostly Cloudy
8:00 PM 73.4 °F 69.8 °F 88% 30.00 in 3.1 mi West 3.5 mph - N/A   Mostly Cloudy
9:00 PM - - %  in 7 mi ESE 46.0 mph - -  
9:00 PM 71.6 °F 69.8 °F 94% 30.01 in 2.5 mi SSW 2.3 mph - N/A   Scattered Clouds
10:00 PM 71.6 °F 69.8 °F 94% 30.01 in 5.0 mi WSW 5.8 mph - N/A Fog Fog
11:00 PM 73.4 °F 64.4 °F 73% 30.00 in 6.2 mi ENE 10.4 mph - N/A   Mostly Cloudy